Temperature
17 17 18 18 18 17 17 17 17 17 17 17 17 17 18 18 18 18 18 18 18 18 18 18 18 18 18 18 18 18 18 18 18 18 18 18 18 18 18 18 18 18 18
17 17 18 17 17 17 17 17 17 17 17 17 17 17 17 17 17 18 18 18 18 18 18 18 18 18 18 18 18 18 18 18 18 18 18 18 18 18 18 18 18 18 18
17 17 17 17 17 17 17 17 17 17 17 17 17 17 17 17 17 17 17 17 17 17 18 18 18 18 18 18 18 18 18 18 18 18 18 18 18 18 18 18 18 18 18
17 17 17 17 17 17 17 17 17 17 17 17 17 17 17 17 17 17 17 17 17 17 17 17 17 17 17 18 18 18 18 18 18 18 17 17 18 18 18 18 18 18 18
17 17 17 17 17 17 17 17 17 17 17 17 17 17 17 17 17 17 17 17 17 17 17 17 17 17 17 17 17 17 17 17 17 17 17 17 18 18 18 18 18 18 18
17 17 17 17 17 17 17 17 17 17 17 17 17 17 17 17 17 17 17 17 17 17 17 17 17 17 17 17 17 17 17 17 17 17 17 17 17 17 18 18 18 17 18
18 17 17 17 17 17 17 17 17 17 17 17 17 17 17 17 17 17 17 17 17 17 17 17 17 17 17 17 17 17 17 17 17 17 17 17 17 17 17 17 17 17 17
18 18 18 17 17 17 17 17 17 17 17 17 17 17 17 17 17 17 16 17 17 17 17 17 17 17 17 17 17 17 17 17 16 17 17 17 17 17 17 17 17 17 17
18 18 18 17 17 17 17 17 17 17 17 16 16 16 16 16 16 16 16 16 16 16 16 17 17 17 17 17 17 17 16 16 16 16 16 16 16 17 17 17 17 17 17
18 18 18 17 17 17 17 17 17 17 16 16 16 16 16 16 16 16 16 16 16 16 16 16 16 16 16 16 16 16 16 16 16 16 16 16 16 16 16 16 16 16 16
18 18 18 17 17 17 17 16 16 16 16 16 16 16 16 16 16 16 16 16 16 16 16 16 16 16 16 16 16 16 16 16 16 16 16 16 16 16 16 16 16 16 16
18 18 18 18 17 17 17 16 16 16 16 16 16 16 16 16 16 16 16 16 16 16 16 16 16 16 16 16 16 16 16 16 16 16 16 16 16 16 16 16 16 16 16
18 18 18 18 17 17 17 16 16 16 16 16 16 16 16 16 16 16 16 16 16 16 16 16 16 16 16 16 16 16 16 16 16 16 16 16 16 16 16 16 15 16 16
18 18 18 18 17 17 17 16 16 16 16 16 16 16 16 16 16 16 16 16 16 16 16 16 16 16 16 16 16 16 16 16 16 16 15 15 15 15 15 15 15 15 15
18 18 18 18 17 17 17 17 16 16 16 16 16 16 16 16 16 16 16 15 15 15 16 16 16 16 16 16 16 15 15 15 15 15 15 15 15 15 15 15 15 15 15
18 18 18 18 17 17 17 17 16 16 16 16 16 16 16 16 16 15 15 15 15 16 16 16 15 15 15 15 15 15 15 15 15 15 15 15 15 15 15 15 15 15 15
19 18 18 18 17 17 17 17 16 16 16 16 16 16 16 16 16 15 15 15 15 15 15 15 15 15 15 15 15 15 15 15 15 15 15 15 15 15 15 15 15 15 15
19 18 18 18 17 17 17 16 16 16 16 16 16 16 16 16 15 15 15 15 15 15 15 15 15 15 15 15 15 15 15 15 15 15 15 15 15 15 15 15 15 15 15
19 18 18 17 17 17 17 16 16 16 16 16 15 15 15 15 15 15 15 15 15 15 15 15 15 15 15 15 15 15 15 15 15 14 14 14 14 14 14 15 15 15 15
18 18 18 17 17 17 16 16 16 16 16 15 15 15 15 15 15 15 15 15 15 15 15 15 15 15 15 15 15 15 15 15 15 14 14 14 14 14 14 14 14 14 14
18 18 18 17 17 17 16 16 16 16 16 15 15 15 15 15 15 15 15 15 15 15 15 15 15 15 15 15 15 15 15 15 15 14 14 14 14 14 14 14 14 14 14
18 18 18 17 17 17 16 16 16 16 16 15 15 15 15 15 15 15 15 15 15 15 15 15 15 14 14 15 15 15 14 14 14 14 14 14 14 14 14 14 14 14 14
18 18 18 18 17 17 16 16 16 16 16 15 15 15 15 15 15 15 15 15 15 15 14 14 14 14 14 14 15 15 15 14 14 14 14 14 14 14 14 13 13 13 13
18 18 18 18 17 17 16 16 16 16 16 16 15 15 15 15 15 15 15 15 15 15 15 14 14 14 14 14 15 15 15 15 14 14 14 14 14 14 14 13 13 13 13
18 18 18 17 17 17 16 16 16 16 16 16 16 15 15 15 15 15 15 15 15 15 15 15 14 14 14 14 14 15 15 15 15 14 14 14 14 14 14 13 13 13 13
18 18 18 17 17 17 17 16 16 16 16 16 16 15 15 15 15 15 15 15 15 15 15 15 15 15 15 15 14 14 14 14 14 14 14 14 14 14 13 13 13 13 13
Wind_Speed
6 9 11 11 11 10 9 10 10 10 10 11 11 10 10 11 11 11 11 11 12 12 11 11 11 11 11 11 11 11 11 11 11 11 12 12 11 11 11 10 10 10 12
8 11 12 12 11 11 10 10 10 11 11 11 11 10 10 11 11 11 11 12 12 12 12 11 11 12 12 12 11 10 10 9 9 9 10 11 11 11 12 12 12 10 12
9 11 12 12 12 11 11 11 10 10 11 11 11 11 11 11 11 11 11 12 12 13 13 12 12 12 12 11 11 10 9 8 8 8 8 8 10 12 12 13 12 12 12
10 11 11 11 12 12 11 11 11 11 11 11 11 11 11 12 12 12 11 12 12 13 13 14 13 12 12 11 10 9 8 8 8 8 9 10 11 12 13 12 12 12 11
10 12 11 11 11 11 10 10 10 10 11 11 10 10 11 11 12 12 12 12 12 12 13 13 12 12 11 11 10 9 8 9 10 11 11 13 12 13 13 12 12 12 11
9 12 11 10 9 10 10 10 10 10 10 10 10 10 10 11 11 12 12 12 12 12 12 12 12 11 11 10 10 9 9 10 10 12 12 13 12 13 13 12 12 11 11
8 10 10 10 9 9 9 9 9 9 9 9 10 10 10 10 11 12 12 12 12 11 11 11 11 11 10 10 10 9 9 10 10 11 12 12 12 13 13 13 12 11 11
7 9 10 10 10 9 9 9 8 8 8 8 8 8 9 10 11 11 11 11 11 11 11 11 11 11 10 9 9 9 9 10 11 12 12 12 13 13 13 13 12 12 11
5 6 8 10 10 10 10 9 8 8 7 7 6 7 8 9 10 11 11 11 12 11 11 10 10 10 10 9 8 8 9 11 10 10 11 11 12 13 13 13 12 12 11
4 5 6 7 9 9 9 8 7 7 6 5 5 5 7 8 9 11 11 11 10 10 10 10 10 9 8 7 6 7 8 10 12 12 10 11 13 14 13 13 13 12 12
5 4 5 5 6 7 8 8 7 6 5 4 4 4 4 7 9 10 11 10 9 8 8 8 7 6 6 6 6 7 8 9 12 10 10 12 14 14 14 13 13 13 13
4 4 4 5 5 6 6 6 5 5 4 3 3 3 4 7 8 9 9 8 7 7 6 5 4 4 3 3 4 6 6 9 10 9 10 13 13 14 14 14 13 13 13
5 4 5 5 5 5 4 4 4 4 3 4 4 5 6 7 6 7 5 5 5 4 2 3 3 2 3 4 5 6 8 9 9 9 10 12 13 13 13 13 13 13 13
5 5 5 5 5 5 5 3 3 3 3 3 4 5 5 3 3 4 3 4 3 3 2 3 3 5 6 6 6 8 9 8 10 10 11 13 12 12 13 13 13 13 12
5 5 5 5 5 5 4 2 4 4 3 4 4 4 5 3 3 3 3 3 3 4 3 3 5 6 6 7 8 8 7 9 10 11 10 13 13 12 13 13 13 13 13
5 5 4 5 5 5 4 3 4 3 4 4 3 4 6 5 4 3 3 3 4 4 5 5 5 5 5 5 6 7 7 8 9 11 11 12 13 13 13 13 14 13 13
6 6 5 5 6 6 5 5 4 4 5 4 4 5 6 6 5 4 3 3 3 5 6 6 6 5 5 5 6 6 7 7 8 9 9 10 11 12 13 13 14 14 14
6 6 6 5 7 6 5 4 4 5 4 4 5 6 6 7 8 5 3 3 4 5 5 4 4 4 5 4 5 4 5 5 6 7 7 8 9 10 11 12 13 13 13
5 6 6 5 6 6 4 4 4 4 4 4 5 5 6 6 7 5 3 3 6 5 4 4 5 4 4 4 4 4 4 4 4 6 6 8 9 10 10 10 11 12 12
4 5 6 5 4 5 3 3 3 4 3 4 4 4 5 5 7 5 4 6 6 4 4 4 4 4 3 3 4 5 3 3 4 4 5 6 8 10 9 9 9 9 10
4 4 5 5 4 3 2 2 2 2 2 2 2 4 4 5 6 6 5 5 4 4 3 4 4 4 2 2 3 3 2 3 4 3 3 4 6 7 9 9 9 9 9
5 4 5 4 4 4 3 2 2 3 2 3 2 2 3 4 5 5 4 4 4 3 4 4 4 2 1 2 1 1 1 2 3 3 2 3 4 5 5 8 9 9 10
5 4 4 4 4 5 4 2 2 2 2 2 2 2 3 5 5 4 4 4 4 3 3 3 2 2 1 1 2 2 2 1 1 2 2 3 3 3 3 6 8 9 10
5 4 4 4 4 4 4 3 2 2 2 2 2 2 2 4 4 4 3 3 4 3 3 2 2 1 1 1 1 2 1 2 2 1 2 2 3 4 4 5 6 8 10
6 5 3 4 4 4 4 4 2 2 1 2 3 3 2 3 3 3 3 3 3 3 3 3 2 2 1 1 1 1 2 2 1 2 1 1 2 2 3 5 5 7 9
6 5 4 5 4 4 3 4 3 3 2 3 3 2 2 2 2 2 3 2 2 3 3 3 3 2 2 2 1 1 1 1 1 1 2 1 1 1 3 4 4 5 7
Wind_Direction
74 74 60 53 49 50 55 58 59 61 67 66 65 67 68 66 65 67 67 67 67 67 69 74 75 74 74 74 73 74 76 78 79 80 80 78 77 76 77 81 87 89 95
85 82 67 59 55 54 57 61 65 65 67 67 67 68 68 69 68 67 69 69 69 69 69 74 77 75 75 73 71 71 73 75 79 82 81 76 76 76 75 75 80 87 93
85 83 72 61 59 59 59 62 67 66 66 67 68 68 69 68 69 69 69 70 69 69 69 70 78 77 76 73 71 68 68 70 73 75 79 78 80 77 76 76 81 84 89
85 80 74 68 65 64 62 61 64 65 66 67 69 68 70 70 69 68 70 72 70 70 72 73 77 75 75 75 70 65 60 64 66 66 68 72 77 77 76 79 83 83 85
86 86 82 75 70 68 67 68 67 66 66 66 69 71 74 74 72 71 73 74 73 72 74 75 74 73 73 71 65 58 56 64 64 71 72 72 73 75 75 76 80 83 84
98 97 94 87 79 73 69 70 70 69 68 69 71 74 75 75 75 76 76 76 75 74 75 77 75 71 70 67 59 50 50 61 65 71 72 74 74 77 76 76 77 81 83
102 108 105 101 94 86 77 71 70 68 67 68 71 76 79 81 80 79 77 76 76 77 76 75 77 76 73 65 56 48 48 64 75 75 72 72 75 79 79 78 76 78 79
101 114 119 114 105 99 90 82 77 75 76 74 75 79 86 89 89 84 82 77 77 79 78 77 78 76 73 68 57 48 43 59 74 79 74 71 77 80 78 76 73 74 78
98 113 125 133 120 111 101 94 89 86 86 88 88 90 99 101 98 93 86 82 81 80 81 80 79 76 73 67 58 48 46 57 64 71 74 71 78 80 78 75 72 73 75
91 95 113 120 126 126 118 106 109 108 102 103 107 106 115 117 110 102 93 87 84 87 87 85 83 81 74 69 60 51 56 60 68 69 70 76 80 79 77 75 73 73 75
91 91 95 99 109 113 115 117 130 128 120 124 130 135 136 129 116 105 99 101 97 97 97 96 97 94 86 75 64 58 62 71 76 72 68 79 82 79 76 74 73 74 74
102 101 103 99 93 92 89 110 119 111 116 119 111 117 114 102 99 106 114 117 115 115 118 123 123 122 110 98 81 63 69 79 83 77 75 82 83 81 78 75 75 73 73
101 92 94 100 94 96 91 94 82 88 95 73 65 79 85 92 102 112 127 131 131 131 135 149 165 118 95 79 83 82 79 79 84 80 77 82 82 81 80 78 74 73 74
89 85 80 85 93 94 92 96 98 90 78 72 51 73 76 83 93 99 103 102 107 95 63 62 70 73 71 70 75 80 80 83 88 86 81 84 80 80 80 79 76 74 74
103 94 81 80 83 91 86 74 80 74 72 70 43 63 75 72 73 75 85 85 85 80 65 57 64 57 56 53 59 69 77 83 89 90 84 83 82 81 80 79 77 75 75
106 99 89 90 91 89 89 79 78 74 74 66 42 56 75 75 78 75 77 73 68 62 62 68 72 70 65 60 57 58 65 76 87 96 95 88 83 80 79 77 74 73 75
106 101 89 88 85 76 69 62 76 73 67 61 40 41 66 74 81 74 66 73 71 64 64 65 67 72 75 71 65 59 58 62 75 86 94 101 95 84 80 78 75 73 75
113 110 99 91 92 84 76 70 65 69 63 56 45 35 54 70 78 72 59 73 80 72 69 71 63 63 69 67 68 62 61 54 69 86 90 96 103 99 89 85 82 78 75
114 114 113 100 99 97 91 87 72 72 62 55 47 34 44 64 80 82 67 69 75 67 59 71 68 62 72 67 80 74 64 56 49 71 76 86 94 106 106 97 91 84 78
105 108 108 103 102 103 96 88 77 67 54 54 44 40 44 57 75 78 81 72 74 67 60 70 81 70 72 65 71 77 75 78 62 58 65 72 82 95 101 102 97 87 80
115 111 116 119 114 102 94 92 94 87 74 66 45 39 48 69 82 80 74 72 75 75 70 69 74 75 64 67 66 62 48 71 79 75 74 77 75 82 93 97 98 98 88
133 134 132 122 111 99 82 83 108 103 99 94 65 45 59 74 83 99 105 100 94 86 73 67 70 67 47 50 68 79 67 39 24 58 85 94 88 78 77 91 98 97 95
140 139 132 126 118 111 111 90 81 88 78 92 83 53 55 74 81 92 106 112 116 112 107 99 82 81 55 13 49 67 80 81 16 24 63 87 89 81 73 77 85 92 93
141 136 135 130 125 124 127 113 112 120 111 120 120 119 95 92 92 88 103 117 116 112 107 107 95 75 69 15 355 22 84 121 113 59 14 56 82 84 80 79 74 82 88
137 133 134 127 118 116 111 112 111 105 117 113 107 107 101 95 104 109 95 92 105 117 113 107 99 77 62 53 29 17 32 37 72 127 115 48 54 65 83 87 83 82 91
126 130 130 119 117 115 125 145 156 139 134 119 115 117 117 110 98 98 96 94 102 109 114 124 132 120 88 68 58 46 55 52 18 93 130 128 108 93 89 90 92 93 93
Height
1518 1517 1516 1515 1514 1513 1513 1513 1513 1513 1513 1513 1513 1513 1514 1514 1514 1514 1514 1514 1514 1514 1514 1514 1515 1516 1516 1517 1518 1518 1519 1520 1521 1522 1522 1523 1524 1524 1525 1526 1526 1527 1528
1519 1517 1517 1516 1515 1514 1514 1514 1514 1514 1514 1514 1514 1514 1515 1515 1515 1515 1515 1515 1515 1515 1515 1515 1516 1517 1518 1518 1519 1520 1521 1522 1522 1523 1524 1524 1525 1526 1526 1527 1527 1528 1529
1520 1518 1517 1517 1516 1516 1515 1515 1515 1515 1515 1515 1515 1516 1516 1516 1517 1517 1517 1517 1517 1517 1516 1515 1516 1518 1519 1520 1521 1522 1523 1523 1524 1524 1525 1526 1526 1527 1528 1528 1529 1529 1530
1521 1519 1519 1518 1517 1517 1517 1516 1516 1516 1516 1517 1517 1517 1517 1518 1518 1518 1518 1518 1518 1518 1518 1517 1518 1520 1521 1522 1523 1524 1524 1525 1525 1526 1526 1527 1528 1528 1529 1529 1530 1530 1531
1522 1521 1520 1519 1519 1518 1518 1518 1518 1517 1518 1518 1518 1518 1519 1519 1519 1519 1519 1519 1519 1519 1520 1520 1521 1522 1523 1524 1524 1525 1526 1526 1527 1527 1528 1529 1529 1530 1530 1531 1531 1532 1532
1522 1522 1521 1521 1520 1520 1519 1519 1519 1519 1519 1519 1519 1520 1520 1520 1520 1521 1521 1521 1521 1521 1521 1522 1523 1523 1524 1525 1526 1527 1528 1528 1528 1529 1529 1530 1530 1531 1531 1532 1532 1533 1533
1524 1523 1523 1522 1521 1521 1521 1520 1520 1520 1520 1521 1521 1521 1521 1522 1522 1522 1522 1522 1522 1523 1523 1524 1524 1525 1526 1527 1528 1528 1529 1530 1530 1530 1530 1531 1531 1532 1532 1533 1533 1534 1534
1525 1524 1524 1524 1523 1523 1522 1522 1522 1522 1522 1522 1522 1523 1523 1523 1523 1524 1524 1524 1524 1524 1525 1525 1526 1526 1527 1528 1529 1530 1530 1531 1531 1531 1531 1532 1532 1533 1533 1533 1534 1534 1535
1526 1526 1525 1525 1524 1524 1524 1523 1523 1523 1524 1524 1524 1524 1525 1525 1525 1525 1525 1526 1526 1526 1527 1527 1528 1528 1529 1530 1530 1531 1532 1532 1532 1532 1533 1533 1533 1534 1534 1534 1535 1535 1536
1527 1527 1527 1526 1526 1526 1525 1525 1525 1525 1525 1526 1526 1526 1526 1527 1527 1527 1527 1527 1527 1528 1528 1529 1529 1530 1531 1531 1532 1532 1533 1533 1533 1533 1534 1534 1534 1535 1535 1535 1536 1536 1536
1528 1528 1528 1528 1528 1528 1527 1527 1527 1527 1527 1527 1528 1528 1528 1528 1529 1529 1529 1529 1529 1529 1530 1530 1531 1531 1532 1533 1533 1534 1534 1534 1534 1534 1535 1535 1536 1536 1536 1536 1537 1537 1537
1529 1529 1529 1529 1529 1529 1529 1529 1529 1529 1529 1529 1530 1530 1530 1531 1531 1531 1531 1531 1531 1531 1532 1532 1533 1533 1533 1534 1535 1535 1535 1535 1535 1535 1536 1536 1537 1537 1537 1538 1538 1538 1538
1530 1530 1530 1530 1530 1530 1530 1530 1530 1530 1531 1531 1531 1532 1532 1532 1532 1532 1532 1532 1532 1533 1533 1534 1535 1535 1535 1536 1536 1536 1537 1536 1536 1537 1537 1538 1538 1538 1538 1539 1539 1539 1539
1530 1531 1531 1531 1531 1531 1531 1531 1532 1532 1532 1532 1533 1533 1533 1533 1534 1534 1534 1534 1534 1535 1535 1536 1536 1536 1537 1537 1538 1538 1538 1538 1538 1538 1538 1539 1539 1539 1539 1540 1540 1540 1540
1531 1531 1531 1532 1532 1532 1532 1533 1533 1533 1533 1534 1534 1534 1534 1535 1535 1535 1535 1535 1536 1536 1537 1537 1537 1537 1538 1538 1538 1539 1539 1539 1539 1539 1539 1540 1540 1540 1541 1541 1541 1541 1541
1531 1532 1532 1532 1533 1533 1533 1534 1534 1534 1535 1535 1535 1535 1536 1536 1536 1536 1536 1537 1537 1537 1538 1538 1538 1539 1539 1539 1540 1540 1540 1541 1541 1540 1540 1541 1541 1541 1542 1541 1542 1542 1541
1531 1532 1533 1533 1534 1534 1534 1535 1535 1536 1536 1536 1536 1537 1537 1537 1537 1537 1537 1538 1538 1539 1539 1539 1540 1540 1540 1541 1541 1542 1542 1542 1542 1542 1542 1542 1542 1542 1543 1543 1543 1543 1542
1531 1532 1533 1534 1534 1535 1535 1536 1536 1536 1537 1537 1537 1538 1538 1538 1538 1538 1539 1539 1539 1540 1540 1540 1541 1541 1542 1542 1542 1543 1543 1543 1544 1544 1544 1543 1543 1544 1544 1544 1545 1545 1545
1531 1532 1533 1534 1535 1535 1536 1537 1537 1537 1538 1538 1538 1538 1539 1539 1539 1539 1540 1540 1540 1541 1541 1541 1542 1542 1543 1543 1544 1544 1545 1545 1545 1546 1546 1545 1545 1545 1545 1546 1546 1547 1547
1532 1532 1533 1535 1535 1536 1537 1537 1538 1538 1539 1539 1539 1539 1540 1540 1540 1541 1541 1541 1541 1542 1542 1543 1543 1544 1544 1545 1545 1546 1546 1546 1547 1547 1547 1547 1547 1547 1547 1547 1547 1548 1548
1531 1532 1533 1534 1535 1536 1537 1538 1538 1538 1539 1539 1540 1540 1540 1541 1541 1541 1542 1542 1542 1543 1543 1544 1544 1545 1546 1546 1547 1547 1548 1548 1548 1548 1548 1548 1549 1549 1549 1549 1549 1549 1548
1531 1532 1533 1534 1535 1536 1537 1538 1538 1539 1540 1540 1540 1541 1541 1542 1542 1542 1543 1543 1543 1544 1544 1545 1545 1546 1547 1547 1548 1548 1549 1550 1549 1549 1550 1550 1550 1550 1550 1550 1550 1550 1549
1530 1532 1533 1534 1535 1536 1537 1538 1539 1539 1540 1541 1541 1542 1542 1542 1543 1543 1544 1544 1545 1545 1545 1546 1546 1547 1548 1549 1549 1549 1550 1550 1550 1551 1551 1551 1551 1551 1551 1551 1551 1551 1550
1530 1531 1533 1534 1535 1536 1537 1538 1538 1539 1540 1541 1542 1542 1543 1543 1544 1544 1545 1545 1546 1546 1546 1547 1547 1548 1548 1549 1549 1550 1550 1550 1551 1551 1552 1552 1552 1551 1552 1552 1552 1551 1551
1529 1531 1532 1533 1535 1536 1537 1538 1539 1540 1541 1541 1542 1543 1544 1544 1544 1545 1546 1546 1547 1547 1547 1547 1548 1548 1549 1549 1549 1550 1550 1550 1551 1551 1552 1552 1552 1552 1552 1552 1552 1552 1551
1528 1530 1531 1533 1534 1535 1536 1537 1538 1539 1540 1541 1542 1543 1544 1544 1545 1546 1546 1547 1547 1547 1548 1548 1548 1548 1549 1549 1549 1550 1550 1550 1550 1550 1551 1551 1552 1552 1552 1552 1552 1552 1551